DOJ7020 KDTW-KDCA

Flight info

Callsign DOJ7020
Flight time 1h 6m
Altitude 37000
Route LIDDS4 GRIVY LUISE FRDMM6
Aircraft A319/M-SDE3FGHIRWY/LB1

Departure

Time 2026-05-07 01:08
Airport Detroit Metropolitan Wayne County Airport (KDTW)

Arrival

Time 2026-05-07 02:15
Airport Ronald Reagan Washington National Airport (KDCA)
Time Latitude Longitude Altitude Speed Heading
2026-05-07 00:19 42.20711 -83.36289 649 ft 0 kts 302°
2026-05-07 00:26 42.20707 -83.36280 650 ft 2 kts 302°
2026-05-07 00:26 42.20698 -83.36262 652 ft 2 kts 302°
2026-05-07 00:26 42.20690 -83.36244 650 ft 2 kts 302°
2026-05-07 00:26 42.20681 -83.36229 652 ft 2 kts 283°
2026-05-07 00:27 42.20682 -83.36209 652 ft 2 kts 249°
2026-05-07 00:27 42.20687 -83.36189 650 ft 2 kts 224°
2026-05-07 00:27 42.20693 -83.36182 651 ft 0 kts 207°
2026-05-07 00:55 42.20691 -83.36184 652 ft 3 kts 207°
2026-05-07 00:56 42.20633 -83.36230 650 ft 16 kts 211°
2026-05-07 00:56 42.20519 -83.36321 651 ft 13 kts 210°
2026-05-07 00:56 42.20489 -83.36345 650 ft 0 kts 210°
2026-05-07 01:03 42.20443 -83.36384 650 ft 16 kts 212°
2026-05-07 01:03 42.20341 -83.36462 650 ft 15 kts 210°
2026-05-07 01:04 42.20229 -83.36550 650 ft 22 kts 212°
2026-05-07 01:04 42.20088 -83.36650 650 ft 16 kts 207°
2026-05-07 01:04 42.19977 -83.36733 650 ft 21 kts 211°
2026-05-07 01:04 42.19858 -83.36819 652 ft 18 kts 207°
2026-05-07 01:05 42.19730 -83.36912 650 ft 23 kts 210°
2026-05-07 01:05 42.19606 -83.37067 651 ft 27 kts 250°
2026-05-07 01:05 42.19637 -83.37327 650 ft 31 kts 301°
2026-05-07 01:05 42.19732 -83.37559 650 ft 27 kts 296°
2026-05-07 01:06 42.19836 -83.37793 650 ft 31 kts 314°
2026-05-07 01:06 42.20026 -83.37970 651 ft 30 kts 321°
2026-05-07 01:06 42.20146 -83.38184 650 ft 26 kts 298°
2026-05-07 01:06 42.20189 -83.38289 651 ft 0 kts 298°
2026-05-07 01:07 42.20191 -83.38296 651 ft 6 kts 298°
2026-05-07 01:07 42.20266 -83.38359 652 ft 20 kts 13°
2026-05-07 01:07 42.20668 -83.38073 653 ft 123 kts 30°
2026-05-07 01:07 42.21699 -83.37270 648 ft 215 kts 30°
2026-05-07 01:08 42.23116 -83.36205 902 ft 231 kts 30°
2026-05-07 01:08 42.24226 -83.34782 1023 ft 215 kts 65°
2026-05-07 01:08 42.24736 -83.32965 1173 ft 208 kts 71°
2026-05-07 01:08 42.25324 -83.31054 1573 ft 233 kts 68°
2026-05-07 01:09 42.26001 -83.28993 2253 ft 245 kts 68°
2026-05-07 01:09 42.26704 -83.26874 3169 ft 249 kts 68°
2026-05-07 01:09 42.27358 -83.24726 4104 ft 252 kts 76°
2026-05-07 01:09 42.27571 -83.22381 5047 ft 253 kts 95°
2026-05-07 01:10 42.27197 -83.19994 5670 ft 270 kts 115°
2026-05-07 01:10 42.26259 -83.17760 6508 ft 277 kts 123°
2026-05-07 01:10 42.25242 -83.15531 7436 ft 281 kts 123°
2026-05-07 01:10 42.24216 -83.13268 8349 ft 285 kts 123°
2026-05-07 01:11 42.23181 -83.10962 9247 ft 289 kts 122°
2026-05-07 01:11 42.22135 -83.08625 10144 ft 293 kts 122°
2026-05-07 01:11 42.21054 -83.06196 10639 ft 314 kts 122°
2026-05-07 01:11 42.19948 -83.03615 11170 ft 328 kts 121°
2026-05-07 01:12 42.18817 -83.00902 11948 ft 335 kts 120°
2026-05-07 01:12 42.17676 -82.98138 12771 ft 339 kts 120°
2026-05-07 01:12 42.16522 -82.95342 13590 ft 343 kts 120°
2026-05-07 01:12 42.15349 -82.92516 14376 ft 348 kts 120°
2026-05-07 01:13 42.14154 -82.89664 15133 ft 352 kts 121°
2026-05-07 01:13 42.12940 -82.86780 15877 ft 356 kts 121°
2026-05-07 01:13 42.11712 -82.83864 16598 ft 360 kts 121°
2026-05-07 01:13 42.10447 -82.80935 17291 ft 364 kts 124°
2026-05-07 01:14 42.08880 -82.78307 17959 ft 367 kts 131°
2026-05-07 01:14 42.07224 -82.75676 18622 ft 370 kts 131°
2026-05-07 01:14 42.05552 -82.73023 19255 ft 374 kts 131°
2026-05-07 01:14 42.03863 -82.70346 19848 ft 377 kts 131°
2026-05-07 01:15 42.02157 -82.67643 20425 ft 381 kts 131°
2026-05-07 01:15 42.00434 -82.64914 20975 ft 384 kts 131°
2026-05-07 01:15 41.98695 -82.62160 21507 ft 388 kts 131°
2026-05-07 01:15 41.96945 -82.59388 22016 ft 391 kts 131°
2026-05-07 01:16 41.95181 -82.56597 22508 ft 394 kts 131°
2026-05-07 01:16 41.93422 -82.53821 22986 ft 397 kts 131°
2026-05-07 01:16 41.91630 -82.50995 23473 ft 400 kts 131°
2026-05-07 01:16 41.89821 -82.48143 23943 ft 403 kts 131°
2026-05-07 01:17 41.87998 -82.45271 24398 ft 406 kts 131°
2026-05-07 01:17 41.86160 -82.42377 24841 ft 409 kts 131°
2026-05-07 01:17 41.84311 -82.39469 25270 ft 411 kts 131°
2026-05-07 01:17 41.82452 -82.36546 25690 ft 414 kts 131°
2026-05-07 01:18 41.80578 -82.33600 26096 ft 417 kts 131°
2026-05-07 01:18 41.78713 -82.30677 26482 ft 419 kts 131°
2026-05-07 01:18 41.76812 -82.27702 26876 ft 422 kts 131°
2026-05-07 01:18 41.74897 -82.24707 27245 ft 424 kts 131°
2026-05-07 01:19 41.72972 -82.21702 27609 ft 427 kts 131°
2026-05-07 01:19 41.71029 -82.18669 27974 ft 429 kts 131°
2026-05-07 01:19 41.69077 -82.15629 28329 ft 432 kts 131°
2026-05-07 01:19 41.67111 -82.12576 28673 ft 434 kts 131°
2026-05-07 01:20 41.65136 -82.09508 29008 ft 437 kts 131°
2026-05-07 01:20 41.63150 -82.06420 29342 ft 439 kts 131°
2026-05-07 01:20 41.61180 -82.03361 29662 ft 441 kts 131°
2026-05-07 01:20 41.59172 -82.00250 29985 ft 444 kts 131°
2026-05-07 01:21 41.57157 -81.97125 30303 ft 446 kts 131°
2026-05-07 01:21 41.55122 -81.93970 30604 ft 448 kts 131°
2026-05-07 01:21 41.53080 -81.90808 30915 ft 451 kts 131°
2026-05-07 01:21 41.51032 -81.87640 31208 ft 453 kts 131°
2026-05-07 01:22 41.48967 -81.84454 31499 ft 455 kts 131°
2026-05-07 01:22 41.46889 -81.81258 31793 ft 457 kts 131°
2026-05-07 01:22 41.44811 -81.78064 32167 ft 456 kts 131°
2026-05-07 01:22 41.42729 -81.74862 32571 ft 455 kts 131°
2026-05-07 01:23 41.40684 -81.71720 32973 ft 455 kts 131°
2026-05-07 01:23 41.38618 -81.68548 33370 ft 454 kts 131°
2026-05-07 01:23 41.36550 -81.65373 33745 ft 453 kts 131°
2026-05-07 01:23 41.34489 -81.62210 34125 ft 452 kts 131°
2026-05-07 01:24 41.32424 -81.59046 34491 ft 452 kts 131°
2026-05-07 01:24 41.30367 -81.55901 34841 ft 451 kts 131°
2026-05-07 01:24 41.28309 -81.52761 35187 ft 450 kts 131°
2026-05-07 01:24 41.26253 -81.49629 35523 ft 450 kts 132°
2026-05-07 01:25 41.24225 -81.46543 35850 ft 449 kts 132°
2026-05-07 01:25 41.22171 -81.43417 36176 ft 448 kts 131°
2026-05-07 01:25 41.20124 -81.40299 36487 ft 448 kts 131°
2026-05-07 01:25 41.18077 -81.37186 36769 ft 448 kts 132°
2026-05-07 01:26 41.16023 -81.34068 37031 ft 448 kts 132°
2026-05-07 01:26 41.13967 -81.30953 37139 ft 452 kts 132°
2026-05-07 01:26 41.11881 -81.27795 37155 ft 457 kts 132°
2026-05-07 01:27 41.07055 -81.22339 37158 ft 466 kts 151°
2026-05-07 01:27 41.04104 -81.20547 37158 ft 470 kts 162°
2026-05-07 01:27 41.00941 -81.19365 37160 ft 474 kts 165°
2026-05-07 01:28 40.94507 -81.17117 37156 ft 480 kts 165°
2026-05-07 01:28 40.88039 -81.14839 37156 ft 481 kts 165°
2026-05-07 01:29 40.81571 -81.12555 37156 ft 481 kts 165°
2026-05-07 01:29 40.75132 -81.10302 37156 ft 482 kts 165°
2026-05-07 01:30 40.68660 -81.08046 37156 ft 481 kts 165°
2026-05-07 01:30 40.62182 -81.05782 37156 ft 481 kts 165°
2026-05-07 01:31 40.55706 -81.03520 37156 ft 481 kts 165°
2026-05-07 01:31 40.49235 -81.01269 37156 ft 481 kts 165°
2026-05-07 01:32 40.42795 -80.99047 37156 ft 481 kts 165°
2026-05-07 01:32 40.36323 -80.96820 37156 ft 481 kts 165°
2026-05-07 01:33 40.29844 -80.94576 37156 ft 481 kts 165°
2026-05-07 01:33 40.23368 -80.92336 37156 ft 481 kts 165°
2026-05-07 01:34 40.16886 -80.90101 37156 ft 481 kts 165°
2026-05-07 01:34 40.10451 -80.87895 37156 ft 481 kts 165°
2026-05-07 01:35 40.03976 -80.85680 37154 ft 481 kts 165°
2026-05-07 01:35 39.97495 -80.83465 37156 ft 482 kts 165°
2026-05-07 01:36 39.91016 -80.81247 37156 ft 482 kts 165°
2026-05-07 01:36 39.84532 -80.79032 37156 ft 481 kts 165°
2026-05-07 01:37 39.78089 -80.76844 37156 ft 481 kts 166°
2026-05-07 01:37 39.71608 -80.74644 37156 ft 481 kts 165°
2026-05-07 01:38 39.65129 -80.72450 37156 ft 481 kts 165°
2026-05-07 01:38 39.61970 -80.71001 37150 ft 482 kts 154°
2026-05-07 01:38 39.59168 -80.68750 37157 ft 482 kts 142°
2026-05-07 01:38 39.56779 -80.65705 37154 ft 483 kts 129°
2026-05-07 01:39 39.54976 -80.62032 37156 ft 485 kts 116°
2026-05-07 01:39 39.52398 -80.53953 37150 ft 486 kts 113°
2026-05-07 01:39 39.51118 -80.49905 36911 ft 486 kts 113°
2026-05-07 01:40 39.49829 -80.45858 36836 ft 485 kts 113°
2026-05-07 01:40 39.48554 -80.41868 36631 ft 472 kts 113°
2026-05-07 01:40 39.47333 -80.38056 36396 ft 460 kts 113°
2026-05-07 01:40 39.46118 -80.34268 36146 ft 453 kts 113°
2026-05-07 01:41 39.44917 -80.30525 35896 ft 449 kts 113°
2026-05-07 01:41 39.43723 -80.26807 35652 ft 446 kts 113°
2026-05-07 01:41 39.42535 -80.23115 35395 ft 443 kts 113°
2026-05-07 01:41 39.41351 -80.19443 35141 ft 442 kts 114°
2026-05-07 01:42 39.40172 -80.15788 34895 ft 440 kts 114°
2026-05-07 01:42 39.38996 -80.12145 34645 ft 438 kts 114°
2026-05-07 01:42 39.37825 -80.08524 34395 ft 436 kts 114°
2026-05-07 01:42 39.36661 -80.04928 34117 ft 432 kts 114°
2026-05-07 01:43 39.35521 -80.01402 33646 ft 430 kts 114°
2026-05-07 01:43 39.34370 -79.97844 33183 ft 429 kts 114°
2026-05-07 01:43 39.33218 -79.94292 32693 ft 427 kts 114°
2026-05-07 01:43 39.32071 -79.90772 32229 ft 424 kts 114°
2026-05-07 01:44 39.30931 -79.87272 31769 ft 422 kts 114°
2026-05-07 01:44 39.29847 -79.83762 31319 ft 420 kts 108°
2026-05-07 01:44 39.29211 -79.80115 31121 ft 415 kts 98°
2026-05-07 01:45 39.28639 -79.72708 31154 ft 415 kts 97°
2026-05-07 01:45 39.28040 -79.65313 31153 ft 415 kts 97°
2026-05-07 01:46 39.27434 -79.57957 31155 ft 414 kts 97°
2026-05-07 01:46 39.26842 -79.50557 31148 ft 415 kts 97°
2026-05-07 01:46 39.26553 -79.46880 30722 ft 411 kts 97°
2026-05-07 01:47 39.26257 -79.43229 30183 ft 407 kts 97°
2026-05-07 01:47 39.25958 -79.39612 29638 ft 403 kts 97°
2026-05-07 01:47 39.25661 -79.36035 29094 ft 400 kts 97°
2026-05-07 01:47 39.25367 -79.32483 28558 ft 396 kts 97°
2026-05-07 01:48 39.25074 -79.28966 28024 ft 393 kts 97°
2026-05-07 01:48 39.24786 -79.25480 27471 ft 389 kts 97°
2026-05-07 01:48 39.24504 -79.22073 26921 ft 386 kts 97°
2026-05-07 01:48 39.24217 -79.18654 26344 ft 382 kts 97°
2026-05-07 01:49 39.23927 -79.15250 25729 ft 380 kts 97°
2026-05-07 01:49 39.23638 -79.11875 25191 ft 375 kts 97°
2026-05-07 01:49 39.23356 -79.08547 24621 ft 371 kts 97°
2026-05-07 01:49 39.23074 -79.05255 24037 ft 368 kts 97°
2026-05-07 01:50 39.22788 -79.01996 23454 ft 364 kts 97°
2026-05-07 01:50 39.22505 -78.98766 22863 ft 361 kts 97°
2026-05-07 01:50 39.22227 -78.95566 22323 ft 357 kts 98°
2026-05-07 01:50 39.21937 -78.92393 22137 ft 356 kts 98°
2026-05-07 01:51 39.21639 -78.89278 21633 ft 353 kts 98°
2026-05-07 01:51 39.21333 -78.86152 21058 ft 350 kts 98°
2026-05-07 01:51 39.21027 -78.83046 20489 ft 347 kts 98°
2026-05-07 01:51 39.20726 -78.79975 20198 ft 345 kts 98°
2026-05-07 01:52 39.20424 -78.76899 20146 ft 346 kts 98°
2026-05-07 01:52 39.20122 -78.73822 20155 ft 347 kts 98°
2026-05-07 01:52 39.19823 -78.70738 20156 ft 347 kts 98°
2026-05-07 01:52 39.19522 -78.67665 19865 ft 343 kts 98°
2026-05-07 01:53 39.19222 -78.64621 19321 ft 341 kts 98°
2026-05-07 01:53 39.18924 -78.61611 18769 ft 338 kts 98°
2026-05-07 01:53 39.18628 -78.58615 18213 ft 335 kts 98°
2026-05-07 01:53 39.18335 -78.55652 17650 ft 332 kts 98°
2026-05-07 01:54 39.18041 -78.52710 17100 ft 329 kts 98°
2026-05-07 01:54 39.17752 -78.49836 16559 ft 326 kts 99°
2026-05-07 01:54 39.17463 -78.46950 16009 ft 324 kts 98°
2026-05-07 01:54 39.17177 -78.44086 15473 ft 321 kts 98°
2026-05-07 01:55 39.16893 -78.41244 15268 ft 320 kts 98°
2026-05-07 01:55 39.16608 -78.38402 15263 ft 321 kts 99°
2026-05-07 01:55 39.16177 -78.35586 15131 ft 318 kts 107°
2026-05-07 01:55 39.15518 -78.32889 14626 ft 315 kts 109°
2026-05-07 01:56 39.14851 -78.30216 14308 ft 313 kts 109°
2026-05-07 01:56 39.14181 -78.27538 14254 ft 314 kts 109°
2026-05-07 01:56 39.13509 -78.24862 14263 ft 315 kts 109°
2026-05-07 01:56 39.12846 -78.22211 14266 ft 315 kts 109°
2026-05-07 01:57 39.12176 -78.19523 14268 ft 315 kts 109°
2026-05-07 01:57 39.11511 -78.16839 14267 ft 315 kts 109°
2026-05-07 01:57 39.10845 -78.14149 14268 ft 315 kts 109°
2026-05-07 01:57 39.10174 -78.11463 14269 ft 315 kts 109°
2026-05-07 01:58 39.09499 -78.08787 14166 ft 313 kts 109°
2026-05-07 01:58 39.08822 -78.06137 13669 ft 310 kts 109°
2026-05-07 01:58 39.08149 -78.03508 13151 ft 308 kts 109°
2026-05-07 01:58 39.07483 -78.00898 12627 ft 306 kts 109°
2026-05-07 01:59 39.06832 -77.98345 12306 ft 303 kts 109°
2026-05-07 01:59 39.06174 -77.95773 11961 ft 302 kts 109°
2026-05-07 01:59 39.05517 -77.93216 11444 ft 300 kts 109°
2026-05-07 01:59 39.04863 -77.90680 11261 ft 299 kts 110°
2026-05-07 02:00 39.04205 -77.88135 11264 ft 300 kts 110°
2026-05-07 02:00 39.03548 -77.85586 11266 ft 301 kts 110°
2026-05-07 02:00 39.02892 -77.83032 11139 ft 299 kts 110°
2026-05-07 02:00 39.02242 -77.80513 10638 ft 296 kts 110°
2026-05-07 02:01 39.01598 -77.78012 10305 ft 293 kts 110°
2026-05-07 02:01 39.00963 -77.75540 10261 ft 295 kts 110°
2026-05-07 02:01 39.00317 -77.73035 10264 ft 296 kts 110°
2026-05-07 02:01 38.99665 -77.70520 10268 ft 296 kts 110°
2026-05-07 02:02 38.99011 -77.68015 10107 ft 294 kts 110°
2026-05-07 02:02 38.98358 -77.65539 9605 ft 291 kts 112°
2026-05-07 02:02 38.97537 -77.63172 9094 ft 289 kts 116°
2026-05-07 02:02 38.96710 -77.60829 8599 ft 287 kts 116°
2026-05-07 02:03 38.95897 -77.58510 8297 ft 284 kts 116°
2026-05-07 02:03 38.95087 -77.56197 8258 ft 282 kts 116°
2026-05-07 02:03 38.94286 -77.53905 8265 ft 281 kts 116°
2026-05-07 02:03 38.93493 -77.51645 8266 ft 281 kts 116°
2026-05-07 02:04 38.92690 -77.49355 8266 ft 281 kts 116°
2026-05-07 02:04 38.91886 -77.47077 8264 ft 278 kts 116°
2026-05-07 02:04 38.90995 -77.44915 8115 ft 271 kts 128°
2026-05-07 02:04 38.89705 -77.43183 7680 ft 268 kts 137°
2026-05-07 02:05 38.88359 -77.41537 7234 ft 266 kts 138°
2026-05-07 02:05 38.87017 -77.39914 6786 ft 265 kts 138°
2026-05-07 02:05 38.85679 -77.38301 6365 ft 263 kts 138°
2026-05-07 02:05 38.84355 -77.36706 6257 ft 262 kts 138°
2026-05-07 02:06 38.83024 -77.35103 6265 ft 263 kts 138°
2026-05-07 02:06 38.81691 -77.33494 6266 ft 263 kts 137°
2026-05-07 02:06 38.80358 -77.31879 6200 ft 262 kts 137°
2026-05-07 02:06 38.79056 -77.30305 5795 ft 260 kts 137°
2026-05-07 02:07 38.77741 -77.28717 5349 ft 259 kts 138°
2026-05-07 02:07 38.75139 -77.25577 4466 ft 255 kts 138°
2026-05-07 02:07 38.73849 -77.24022 4019 ft 254 kts 138°
2026-05-07 02:08 38.72569 -77.22480 3559 ft 252 kts 138°
2026-05-07 02:08 38.71301 -77.20949 3283 ft 247 kts 138°
2026-05-07 02:08 38.70096 -77.19495 3260 ft 229 kts 138°
2026-05-07 02:08 38.68959 -77.18125 3264 ft 222 kts 138°
2026-05-07 02:09 38.67836 -77.16776 3265 ft 221 kts 138°
2026-05-07 02:09 38.66729 -77.15449 3265 ft 221 kts 138°
2026-05-07 02:09 38.65613 -77.14108 3267 ft 221 kts 138°
2026-05-07 02:09 38.64490 -77.12758 3267 ft 221 kts 138°
2026-05-07 02:10 38.63367 -77.11413 3267 ft 221 kts 138°
2026-05-07 02:10 38.62506 -77.09807 3265 ft 224 kts 108°
2026-05-07 02:10 38.62309 -77.07823 3268 ft 227 kts 89°
2026-05-07 02:10 38.62630 -77.05849 3266 ft 229 kts 69°
2026-05-07 02:11 38.63448 -77.04098 3267 ft 231 kts 50°
2026-05-07 02:11 38.64682 -77.02783 3266 ft 233 kts 30°
2026-05-07 02:11 38.66180 -77.02074 3265 ft 234 kts
2026-05-07 02:11 38.67804 -77.02018 3150 ft 233 kts 355°
2026-05-07 02:12 38.69392 -77.02184 2889 ft 227 kts 354°
2026-05-07 02:12 38.70947 -77.02346 2602 ft 220 kts 355°
2026-05-07 02:12 38.72422 -77.02495 2320 ft 207 kts 355°
2026-05-07 02:12 38.73827 -77.02636 2053 ft 201 kts 355°
2026-05-07 02:13 38.75214 -77.02775 1787 ft 199 kts 355°
2026-05-07 02:13 38.76595 -77.02914 1522 ft 198 kts 355°
2026-05-07 02:13 38.77966 -77.03051 1263 ft 196 kts 355°
2026-05-07 02:13 38.79295 -77.03185 1002 ft 187 kts 355°
2026-05-07 02:14 38.80556 -77.03312 794 ft 181 kts 355°
2026-05-07 02:14 38.81775 -77.03432 580 ft 169 kts 355°
2026-05-07 02:14 38.82957 -77.03546 322 ft 172 kts 355°
2026-05-07 02:14 38.84112 -77.03669 58 ft 157 kts 355°
2026-05-07 02:15 38.85070 -77.03771 26 ft 117 kts 355°
2026-05-07 02:15 38.85738 -77.03836 26 ft 79 kts 355°
2026-05-07 02:15 38.86071 -77.03913 24 ft 18 kts 293°
2026-05-07 02:15 38.86014 -77.04031 26 ft 18 kts 212°
2026-05-07 02:16 38.85819 -77.04067 28 ft 40 kts 178°
2026-05-07 02:16 38.85509 -77.04047 27 ft 49 kts 176°
2026-05-07 02:16 38.85152 -77.03991 21 ft 36 kts 173°
2026-05-07 02:16 38.85035 -77.04059 21 ft 0 kts 251°